FW8531 Weather Reports


Display with metric or nautical units.
time (UTC)temp
F
wind
direction
speed
MPH
gust
MPH
rain 1hr
in
rain 24hr
in
rain mn
in
humidity
%
barometer
mb
20260507171518 56 39 1.0 5.0 0.00 0.61 0.40 70 1006.6
20260507170006 54 287 1.0 5.0 0.00 0.61 0.40 69 1006.7
20260507164509 55 319 1.0 7.0 0.00 0.61 0.40 71 1006.8
20260507163019 55 39 1.0 6.0 0.00 0.61 0.40 72 1006.9
20260507161517 55 24 1.0 4.0 0.00 0.61 0.40 69 1007.1
20260507160022 56 315 1.0 5.0 0.00 0.61 0.40 69 1007.4
20260507154506 56 35 1.0 6.0 0.00 0.61 0.40 75 1007.4
20260507153011 55 23 1.0 5.0 0.00 0.61 0.40 84 1007.6
20260507151516 53 46 2.0 6.0 0.00 0.61 0.40 94 1007.5
20260507150021 52 322 0.0 5.0 0.00 0.61 0.40 94 1007.6
20260507144522 52 255 0.0 4.0 0.00 0.61 0.40 95 1007.5
20260507143007 52 159 0.0 4.0 0.00 0.61 0.40 96 1007.6
20260507141511 51 184 0.0 3.0 0.00 0.61 0.40 95 1007.6
20260507140025 50 346 1.0 4.0 0.00 0.61 0.40 95 1007.8
20260507134520 50 231 0.0 3.0 0.00 0.61 0.40 96 1007.7
20260507133024 49 241 0.0 4.0 0.00 0.61 0.40 96 1007.7
20260507131511 49 228 0.0 1.0 0.01 0.61 0.40 96 1007.7
20260507130012 49 251 0.0 2.0 0.02 0.61 0.40 96 1007.9
20260507124519 48 320 0.0 4.0 0.02 0.61 0.40 96 1007.7
20260507123024 47 231 0.0 1.0 0.05 0.61 0.40 96 1008.0
20260507121526 47 231 0.0 1.0 0.05 0.60 0.39 96 1007.7
20260507120026 47 226 0.0 1.0 0.05 0.58 0.38 96 1007.8
20260507114515 47 290 0.0 2.0 0.06 0.58 0.38 96 1007.8
20260507113020 48 223 0.0 6.0 0.04 0.56 0.35 96 1008.0
20260507111523 48 321 1.0 4.0 0.04 0.55 0.34 96 1007.1
20260507110026 49 219 1.0 3.0 0.04 0.54 0.33 96 1007.2
20260507103022 49 252 0.0 3.0 0.06 0.52 0.31 96 1006.9
20260507101535 50 262 0.0 2.0 0.07 0.51 0.30 96 1006.7
20260507100031 50 313 0.0 1.0 0.09 0.50 0.29 96 1006.8
20260507094525 50 335 0.0 4.0 0.09 0.49 0.28 96 1006.4
20260507091541 53 39 0.0 2.0 0.22 0.44 0.23 96 1006.5
20260507090022 53 234 0.0 1.0 0.20 0.41 0.20 96 1006.7
20260507084506 54 323 0.0 1.0 0.19 0.40 0.19 96 1006.0
20260507083015 54 271 0.0 4.0 0.14 0.35 0.14 97 1006.3
20260507081501 54 221 0.0 0.0 0.01 0.22 0.01 96 1005.9
20260507080007 54 171 0.0 0.0 0.00 0.21 0.00 96 1005.4
20260507074508 54 144 0.0 0.0 0.00 0.21 0.00 96 1005.3
20260507073009 54 144 0.0 0.0 0.00 0.21 0.00 96 1005.7
20260507071511 54 150 0.0 0.0 0.00 0.21 0.00 96 1005.5
20260507070003 54 186 0.0 0.0 0.00 0.21 0.00 96 1005.7
20260507064510 54 165 0.0 0.0 0.00 0.21 0.00 96 1005.6
20260507063006 54 176 0.0 0.0 0.00 0.21 0.00 96 1005.6
20260507061526 54 158 0.0 0.0 0.00 0.21 0.00 96 1006.0
20260507060021 54 222 0.0 0.0 0.00 0.21 0.00 96 1005.9
20260507054503 54 201 0.0 0.0 0.00 0.21 0.00 96 1006.2
20260507053006 54 179 0.0 0.0 0.00 0.21 0.00 96 1006.3
20260507051508 54 236 0.0 0.0 0.00 0.21 0.00 96 1006.5
20260507050027 54 184 0.0 0.0 0.00 0.21 0.00 96 1006.5
20260507044534 54 210 0.0 1.0 0.00 0.21 0.00 96 1006.4
20260507043020 54 217 0.0 3.0 0.00 0.21 0.00 96 1006.6
20260507041507 54 205 1.0 5.0 0.00 0.21 0.00 96 1006.4
20260507040011 54 184 0.0 3.0 0.00 0.21 0.00 96 1006.6
20260507034514 54 145 1.0 4.0 0.00 0.21 0.21 96 1006.7
20260507033020 54 101 1.0 8.0 0.00 0.21 0.21 96 1006.8
20260507031523 54 198 1.0 5.0 0.00 0.21 0.21 96 1006.5
20260507030011 54 210 0.0 5.0 0.00 0.21 0.21 96 1006.2
20260507024514 55 201 0.0 4.0 0.00 0.21 0.21 96 1006.1
20260507023017 55 192 1.0 6.0 0.00 0.21 0.21 96 1006.7
20260507021520 55 112 0.0 6.0 0.00 0.21 0.21 96 1006.9
20260507020024 55 243 0.0 3.0 0.00 0.21 0.21 96 1007.1
20260507014509 56 146 1.0 5.0 0.00 0.21 0.21 96 1007.2
20260507013017 56 218 1.0 5.0 0.00 0.21 0.21 95 1007.3
20260507011528 56 156 1.0 6.0 0.01 0.21 0.21 95 1007.4
20260507010023 56 290 1.0 7.0 0.03 0.21 0.21 96 1007.4
20260507004523 56 97 2.0 6.0 0.06 0.21 0.21 95 1007.4
20260507003012 56 200 1.0 7.0 0.16 0.21 0.21 95 1007.6
20260507001518 56 196 1.0 8.0 0.17 0.20 0.20 95 1007.5
20260507000026 56 243 1.0 8.0 0.16 0.18 0.18 95 1007.5
20260506234525 57 248 1.0 5.0 0.14 0.15 0.15 95 1007.5
20260506233026 57 89 2.0 10.0 0.05 0.05 0.05 94 1007.5
20260506231516 56 192 1.0 13.0 0.03 0.03 0.03 94 1007.6
20260506230020 56 201 3.0 8.0 0.02 0.02 0.02 92 1007.7
20260506224524 57 134 2.0 7.0 0.01 0.01 0.01 91 1007.8
20260506223026 58 123 3.0 11.0 0.00 0.00 0.00 88 1007.8
20260506221530 59 113 3.0 14.0 0.00 0.00 0.00 86 1008.0
20260506220019 59 238 2.0 11.0 0.00 0.00 0.00 86 1007.8
20260506214520 59 174 1.0 8.0 0.00 0.00 0.00 87 1007.8
20260506213023 58 167 1.0 8.0 0.00 0.00 0.00 88 1008.1
20260506211525 60 235 0.0 6.0 0.00 0.00 0.00 86 1008.4
20260506210028 61 176 2.0 5.0 0.00 0.00 0.00 82 1008.4
20260506204523 61 165 2.0 12.0 0.00 0.00 0.00 81 1008.4
20260506203003 60 240 2.0 11.0 0.00 0.00 0.00 82 1008.7
20260506201505 60 185 2.0 6.0 0.00 0.00 0.00 82 1008.8
20260506200009 60 96 3.0 8.0 0.00 0.00 0.00 81 1009.2
20260506194514 61 141 1.0 8.0 0.00 0.00 0.00 81 1009.1
20260506193017 61 191 3.0 7.0 0.00 0.00 0.00 80 1009.3
20260506191524 62 216 1.0 8.0 0.00 0.00 0.00 79 1009.3
20260506190007 62 219 2.0 8.0 0.00 0.00 0.00 79 1009.2
20260506184513 61 238 3.0 7.0 0.00 0.00 0.00 80 1009.7
20260506183018 62 212 2.0 10.0 0.00 0.00 0.00 79 1009.9
20260506181522 63 135 4.0 14.0 0.00 0.00 0.00 77 1010.2
20260506180026 64 278 4.0 19.0 0.00 0.00 0.00 75 1010.3
20260506174509 65 108 2.0 11.0 0.00 0.00 0.00 76 1010.6
20260506173012 64 122 3.0 11.0 0.00 0.00 0.00 78 1010.4